Location: M?digepalle
(16.1753°N, 80.3496°E)
Time: 08:15:01
(UTC+00:00)

Intercosmos 24 - Pass Details

Date: 29 October 2020
Orbit: 498 x 2379 km, 82.6° (Epoch: 27 November)

Event Time Altitude Azimuth Distance (km) Brightness Sun altitude
Exits shadow 23:29:03 - 352° (N) 2,549 7.0 -16.3°
Reaches altitude 10° 23:30:55 10° 350° (N) 1,734 6.2 -15.9°
Maximum altitude 23:34:31 71° 266° (W) 608 3.8 -15.0°
Drops below altitude 10° 23:39:05 10° 182° (S) 2,181 7.0 -14.0°
Sets 23:41:46 0° 180° (S) 3,333 8.0 -13.3°
